Tracking 21076 objects as of 9-Aug-2020
HD Live streaming from Space Station
objects crossing your sky now
Track the most recent launched group of Starlink satellites

COSMOS 1474

Track COSMOS 1474 now!
10-day predictions
COSMOS 1474 is classified as:


NORAD ID: 14172
Int'l Code: 1983-069B
Perigee: 1,418.1 km
Apogee: 1,469.9 km
Inclination: 74.0 °
Period: 114.6 minutes
Semi major axis: 7815 km
RCS: 0.7019 m2 (medium)
Launch date: July 6, 1983
Source: Commonwealth of Independent States (former USSR) (CIS)
Launch site: PLESETSK MISSILE AND SPACE COMPLEX (PKMTR)
aabbcc
Your satellite tracking list
Your tracking list is empty




NASA's NSSDC Master Catalog

Two Line Element Set (TLE):
1 14172U 83069B   20221.89359718 -.00000023 +00000-0 -38831-4 0  9992
2 14172 074.0246 069.4712 0033178 008.1561 003.2108 12.56633161701660
Source of the keplerian elements: AFSPC